GW0714 Weather Reports


Display with metric or nautical units.
time (UTC)temp
F
wind
direction
speed
MPH
gust
MPH
rain 1hr
in
rain 24hr
in
rain mn
in
humidity
%
barometer
mb
20260902141554 54 0 0.0 2.0 0.00 0.00 0.00 80 1017.6
20260902141027 54 0 0.0 2.0 0.00 0.00 0.00 80 1017.6
20260902140528 54 0 0.0 1.0 0.00 0.00 0.00 81 1017.5
20260902140047 54 0 0.0 1.0 0.00 0.00 0.00 81 1017.5
20260902135528 54 0 0.0 2.0 0.00 0.00 0.00 81 1017.5
20260902135029 53 0 0.0 3.0 0.00 0.00 0.00 82 1017.5
20260902134554 53 0 0.0 3.0 0.00 0.00 0.00 82 1017.4
20260902134029 53 0 0.0 2.0 0.00 0.00 0.00 82 1017.3
20260902133533 53 0 0.0 2.0 0.00 0.00 0.00 82 1017.3
20260902133048 53 275 0.0 2.0 0.00 0.00 0.00 82 1017.2
20260902132531 53 290 0.0 2.0 0.00 0.00 0.00 82 1017.1
20260902132030 53 0 0.0 2.0 0.00 0.00 0.00 82 1017.1
20260902131605 53 0 0.0 2.0 0.00 0.00 0.00 83 1017.0
20260902131027 53 254 0.0 2.0 0.00 0.00 0.00 83 1017.1
20260902130529 53 0 0.0 2.0 0.00 0.00 0.00 83 1017.1
20260902130053 53 0 0.0 2.0 0.00 0.00 0.00 83 1017.0
20260902125530 53 263 0.0 2.0 0.00 0.00 0.00 83 1017.1
20260902125030 53 0 0.0 2.0 0.00 0.00 0.00 83 1017.0
20260902124552 53 281 0.0 2.0 0.00 0.00 0.00 83 1017.0
20260902124029 53 270 0.0 2.0 0.00 0.00 0.00 83 1017.0
20260902123532 53 0 0.0 2.0 0.00 0.00 0.00 83 1017.0
20260902123047 53 0 0.0 2.0 0.00 0.00 0.00 83 1017.1
20260902122532 53 0 0.0 2.0 0.00 0.00 0.00 83 1016.9
20260902122033 53 0 0.0 2.0 0.00 0.00 0.00 83 1017.0
20260902121549 53 0 0.0 2.0 0.00 0.00 0.00 83 1017.0
20260902121031 53 0 0.0 2.0 0.00 0.00 0.00 83 1017.0
20260902120532 53 0 0.0 2.0 0.00 0.00 0.00 83 1016.9
20260902120048 53 295 0.0 2.0 0.00 0.00 0.00 83 1017.0
20260902115531 53 291 0.0 2.0 0.00 0.00 0.00 83 1017.0
20260902115032 53 0 0.0 2.0 0.00 0.00 0.00 83 1016.9
20260902114611 53 279 0.0 2.0 0.00 0.00 0.00 83 1016.9
20260902114034 53 0 0.0 2.0 0.00 0.00 0.00 83 1017.1
20260902113530 53 0 0.0 2.0 0.00 0.00 0.00 83 1016.9
20260902113047 53 0 0.0 2.0 0.00 0.00 0.00 83 1016.8
20260902112531 53 0 0.0 2.0 0.00 0.00 0.00 83 1016.8
20260902112036 53 0 0.0 2.0 0.00 0.00 0.00 83 1016.8
20260902111548 53 0 0.0 2.0 0.00 0.00 0.00 83 1016.9
20260902111029 53 0 0.0 2.0 0.00 0.00 0.00 83 1016.8
20260902110531 53 0 0.0 2.0 0.00 0.00 0.00 83 1016.8
20260902110053 53 0 0.0 2.0 0.00 0.00 0.00 83 1016.9
20260902105531 53 309 0.0 2.0 0.00 0.00 0.00 83 1016.8
20260902105031 53 275 0.0 2.0 0.00 0.00 0.00 83 1017.1
20260902104556 53 0 0.0 2.0 0.00 0.00 0.00 83 1017.1
20260902104029 53 267 0.0 2.0 0.00 0.00 0.00 83 1017.0
20260902103531 53 273 0.0 1.0 0.00 0.00 0.00 83 1017.0
20260902103059 53 0 0.0 1.0 0.00 0.00 0.00 83 1017.1
20260902102531 53 0 0.0 1.0 0.00 0.00 0.00 83 1017.1
20260902102030 53 0 0.0 1.0 0.00 0.00 0.00 82 1017.2
20260902101548 53 0 0.0 1.0 0.00 0.00 0.00 82 1017.2
20260902101032 54 0 0.0 1.0 0.00 0.00 0.00 82 1017.3
20260902100533 54 273 0.0 1.0 0.00 0.00 0.00 82 1017.2
20260902100049 54 275 0.0 1.0 0.00 0.00 0.00 82 1017.2
20260902095534 54 0 0.0 1.0 0.00 0.00 0.00 82 1017.2
20260902095029 54 0 0.0 1.0 0.00 0.00 0.00 82 1017.3
20260902094551 54 0 0.0 1.0 0.00 0.00 0.00 82 1017.3
20260902094033 54 0 0.0 4.0 0.00 0.00 0.00 82 1017.2
20260902093529 54 287 0.0 4.0 0.00 0.00 0.00 82 1017.3
20260902093046 54 0 0.0 3.0 0.00 0.00 0.00 82 1017.3
20260902092531 54 0 0.0 5.0 0.00 0.00 0.00 82 1017.3
20260902092031 54 0 0.0 5.0 0.00 0.00 0.00 82 1017.3
20260902091551 54 263 1.0 5.0 0.00 0.00 0.00 82 1017.3
20260902091029 54 325 1.0 5.0 0.00 0.00 0.00 82 1017.2
20260902090532 54 0 0.0 5.0 0.00 0.00 0.00 82 1017.2
20260902090051 54 0 0.0 6.0 0.00 0.00 0.00 82 1017.2
20260902085531 54 0 0.0 6.0 0.00 0.00 0.00 82 1017.0
20260902085029 54 293 1.0 6.0 0.00 0.00 0.00 81 1017.1
20260902084548 54 297 1.0 6.0 0.00 0.00 0.00 81 1017.2
20260902084030 54 337 1.0 9.0 0.00 0.00 0.00 81 1017.2
20260902083531 54 265 1.0 9.0 0.00 0.00 0.00 81 1017.1
20260902083044 54 336 1.0 6.0 0.00 0.00 0.00 80 1017.1
20260902082531 54 289 1.0 6.0 0.00 0.00 0.00 80 1017.0
20260902082031 55 267 2.0 6.0 0.00 0.00 0.00 80 1017.0
20260902081554 55 337 2.0 6.0 0.00 0.00 0.00 80 1017.2
20260902081030 55 0 1.0 6.0 0.00 0.00 0.00 79 1017.1
20260902080531 55 341 1.0 6.0 0.00 0.00 0.00 79 1017.0
20260902080054 55 284 1.0 5.0 0.00 0.00 0.00 79 1016.9
20260902075529 55 0 1.0 5.0 0.00 0.00 0.00 79 1016.9
20260902075031 55 317 1.0 3.0 0.00 0.00 0.00 78 1016.8
20260902074552 55 315 0.0 4.0 0.00 0.00 0.00 78 1016.7
20260902074030 55 331 1.0 5.0 0.00 0.00 0.00 78 1016.7
20260902073532 55 337 1.0 5.0 0.00 0.00 0.00 78 1016.8
20260902073051 55 0 1.0 5.0 0.00 0.00 0.00 77 1016.7
20260902072528 55 291 1.0 5.0 0.00 0.00 0.00 77 1016.6
20260902072030 56 0 2.0 6.0 0.00 0.00 0.00 77 1016.7
20260902071543 56 323 0.0 6.0 0.00 0.00 0.00 77 1016.7
20260902071033 56 321 1.0 6.0 0.00 0.00 0.00 77 1016.7
20260902070530 56 327 0.0 5.0 0.00 0.00 0.00 77 1016.7
20260902070044 56 327 1.0 6.0 0.00 0.00 0.00 76 1016.7
20260902065529 56 323 1.0 8.0 0.00 0.00 0.00 77 1016.7
20260902065031 56 279 1.0 9.0 0.00 0.00 0.00 76 1016.9
20260902064551 56 317 1.0 9.0 0.00 0.00 0.00 76 1016.9
20260902064032 56 347 1.0 9.0 0.00 0.00 0.00 76 1017.0
20260902063534 56 340 1.0 9.0 0.00 0.00 0.00 75 1017.0
20260902063048 57 305 3.0 9.0 0.00 0.00 0.00 75 1017.0
20260902062529 57 343 1.0 6.0 0.00 0.00 0.00 75 1017.2
20260902062031 57 295 1.0 6.0 0.00 0.00 0.00 74 1017.2
20260902061552 57 272 2.0 6.0 0.00 0.00 0.00 74 1017.1
20260902061033 57 319 2.0 9.0 0.00 0.00 0.00 74 1017.2
20260902060527 57 329 1.0 10.0 0.00 0.00 0.00 74 1017.2
20260902060041 57 335 4.0 10.0 0.00 0.00 0.00 74 1017.2
20260902055528 57 333 1.0 10.0 0.00 0.00 0.00 73 1017.2
20260902055026 57 0 1.0 10.0 0.00 0.00 0.00 73 1017.1
20260902054551 57 338 2.0 10.0 0.00 0.00 0.00 73 1017.2
20260902054029 58 329 1.0 8.0 0.00 0.00 0.00 72 1017.1
20260902053533 58 338 1.0 8.0 0.00 0.00 0.00 71 1017.2
20260902053048 58 332 3.0 9.0 0.00 0.00 0.00 71 1017.1
20260902052530 58 344 3.0 10.0 0.00 0.00 0.00 71 1017.0
20260902052027 58 338 4.0 10.0 0.00 0.00 0.00 71 1017.2
20260902051543 58 328 3.0 8.0 0.00 0.00 0.00 71 1017.3
20260902051029 58 336 2.0 8.0 0.00 0.00 0.00 70 1017.3
20260902050530 58 342 2.0 5.0 0.00 0.00 0.00 70 1017.2
20260902050051 59 338 1.0 5.0 0.00 0.00 0.00 69 1017.2
20260902045526 59 328 2.0 5.0 0.00 0.00 0.00 68 1017.3
20260902045028 59 340 1.0 5.0 0.00 0.00 0.00 68 1017.2
20260902044550 59 331 1.0 5.0 0.00 0.00 0.00 67 1017.1
20260902044027 59 0 1.0 5.0 0.00 0.00 0.00 67 1017.1
20260902043526 59 13 2.0 5.0 0.00 0.00 0.00 66 1017.0
20260902043054 59 331 2.0 7.0 0.00 0.00 0.00 65 1017.0
20260902042527 60 24 3.0 7.0 0.00 0.00 0.00 65 1016.9
20260902042027 60 5 2.0 7.0 0.00 0.00 0.00 64 1017.0
20260902041557 60 5 3.0 7.0 0.00 0.00 0.00 64 1016.9
20260902041026 60 352 2.0 6.0 0.00 0.00 0.00 63 1016.7
20260902040526 60 350 3.0 6.0 0.00 0.00 0.00 63 1016.7
20260902040043 61 9 3.0 6.0 0.00 0.00 0.00 62 1016.6
20260902035526 61 350 2.0 6.0 0.00 0.00 0.00 62 1016.5
20260902035027 61 5 2.0 6.0 0.00 0.00 0.00 61 1016.3
20260902034553 61 9 3.0 8.0 0.00 0.00 0.00 61 1016.1
20260902034027 61 5 2.0 8.0 0.00 0.00 0.00 61 1016.1
20260902033529 61 342 2.0 8.0 0.00 0.00 0.00 60 1016.1
20260902033051 62 38 1.0 6.0 0.00 0.00 0.00 60 1016.0
20260902032531 62 40 2.0 11.0 0.00 0.00 0.00 60 1015.9
20260902032033 62 62 2.0 11.0 0.00 0.00 0.00 59 1015.9
20260902031542 62 29 2.0 9.0 0.00 0.00 0.00 59 1015.8
20260902031027 63 5 1.0 8.0 0.00 0.00 0.00 59 1015.6
20260902030530 63 52 2.0 8.0 0.00 0.00 0.00 58 1015.6
20260902030050 63 352 1.0 5.0 0.00 0.00 0.00 58 1015.5
20260902025532 63 295 1.0 5.0 0.00 0.00 0.00 57 1015.4
20260902025031 64 117 0.0 5.0 0.00 0.00 0.00 56 1015.4
20260902024549 64 0 1.0 7.0 0.00 0.00 0.00 55 1015.3
20260902024031 64 43 0.0 8.0 0.00 0.00 0.00 54 1015.3
20260902023531 64 32 1.0 8.0 0.00 0.00 0.00 53 1015.3
20260902023048 65 320 0.0 5.0 0.00 0.00 0.00 52 1015.4
20260902022531 65 49 0.0 7.0 0.00 0.00 0.00 52 1015.3
20260902022030 65 19 3.0 9.0 0.00 0.00 0.00 51 1015.4
20260902021553 65 28 4.0 9.0 0.00 0.00 0.00 50 1015.2
20260902021031 66 331 1.0 9.0 0.00 0.00 0.00 50 1015.2
20260902020531 66 36 1.0 9.0 0.00 0.00 0.00 49 1015.2
20260902020052 66 17 2.0 9.0 0.00 0.00 0.00 49 1015.2
20260902015530 67 325 3.0 9.0 0.00 0.00 0.00 48 1015.2
20260902015034 67 5 1.0 6.0 0.00 0.00 0.00 48 1015.1
20260902014550 67 344 3.0 8.0 0.00 0.00 0.00 47 1015.2
20260902014032 68 25 3.0 8.0 0.00 0.00 0.00 46 1015.2
20260902013534 68 346 2.0 8.0 0.00 0.00 0.00 46 1015.2
20260902013044 68 317 2.0 10.0 0.00 0.00 0.00 45 1015.1
20260902012531 68 11 4.0 12.0 0.00 0.00 0.00 44 1015.1
20260902012030 68 315 4.0 12.0 0.00 0.00 0.00 44 1015.1
20260902011551 68 348 4.0 11.0 0.00 0.00 0.00 44 1015.2
20260902011031 69 311 2.0 11.0 0.00 0.00 0.00 45 1015.2
20260902010529 69 5 4.0 11.0 0.00 0.00 0.00 44 1015.2
20260902010047 69 318 6.0 11.0 0.00 0.00 0.00 43 1015.2
20260902005528 69 329 4.0 11.0 0.00 0.00 0.00 43 1015.2
20260902005028 70 343 6.0 11.0 0.00 0.00 0.00 43 1015.2
20260902004548 70 59 2.0 9.0 0.00 0.00 0.00 44 1015.1
20260902004028 70 360 2.0 10.0 0.00 0.00 0.00 44 1015.2
20260902003531 70 352 2.0 12.0 0.00 0.00 0.00 44 1015.1
20260902003054 70 317 5.0 12.0 0.00 0.00 0.00 43 1015.2
20260902002534 70 352 6.0 12.0 0.00 0.00 0.00 43 1015.2
20260902002035 71 319 3.0 13.0 0.00 0.00 0.00 43 1015.3
20260902001552 71 50 6.0 13.0 0.00 0.00 0.00 43 1015.2
20260902001034 71 5 5.0 12.0 0.00 0.00 0.00 44 1015.2
20260902000616 71 352 4.0 11.0 0.00 0.00 0.00 42 1015.3
20260902000112 72 0 4.0 11.0 0.00 0.00 0.00 43 1015.2
20260901235532 71 346 6.0 11.0 0.00 0.00 0.00 43 1015.3
20260901235031 71 322 2.0 11.0 0.00 0.00 0.00 43 1015.3
20260901234547 71 207 5.0 11.0 0.00 0.00 0.00 42 1015.2
20260901234029 71 319 4.0 12.0 0.00 0.00 0.00 44 1015.3
20260901233532 72 5 6.0 12.0 0.00 0.00 0.00 43 1015.2
20260901233044 72 333 5.0 12.0 0.00 0.00 0.00 42 1015.3
20260901232531 72 344 4.0 13.0 0.00 0.00 0.00 43 1015.2
20260901232033 71 32 2.0 13.0 0.00 0.00 0.00 44 1015.2
20260901231555 71 360 5.0 13.0 0.00 0.00 0.00 43 1015.3
20260901231030 72 352 6.0 12.0 0.00 0.00 0.00 43 1015.5
20260901230529 72 347 3.0 12.0 0.00 0.00 0.00 43 1015.5
20260901230104 72 347 4.0 12.0 0.00 0.00 0.00 42 1015.4
20260901225532 72 323 5.0 11.0 0.00 0.00 0.00 44 1015.5
20260901225031 71 13 1.0 14.0 0.00 0.00 0.00 43 1015.5
20260901224549 72 349 7.0 14.0 0.00 0.00 0.00 44 1015.6
20260901224030 71 5 7.0 12.0 0.00 0.00 0.00 44 1015.5
20260901223532 72 9 7.0 12.0 0.00 0.00 0.00 44 1015.7
20260901223043 71 322 4.0 12.0 0.00 0.00 0.00 45 1015.6
20260901222531 72 350 8.0 14.0 0.00 0.00 0.00 44 1015.9
20260901222030 72 17 7.0 14.0 0.00 0.00 0.00 44 1015.9
20260901221551 71 24 4.0 12.0 0.00 0.00 0.00 46 1015.9
20260901221029 72 339 5.0 12.0 0.00 0.00 0.00 45 1016.0
20260901220531 71 331 3.0 11.0 0.00 0.00 0.00 46 1015.9
20260901220114 71 5 6.0 11.0 0.00 0.00 0.00 45 1015.9
20260901215528 71 329 4.0 16.0 0.00 0.00 0.00 46 1015.9
20260901215033 71 348 4.0 16.0 0.00 0.00 0.00 46 1016.1
20260901214545 72 339 7.0 14.0 0.00 0.00 0.00 45 1016.0
20260901214031 71 16 7.0 13.0 0.00 0.00 0.00 47 1015.9
20260901213532 71 26 2.0 12.0 0.00 0.00 0.00 48 1015.7
20260901213108 70 20 5.0 12.0 0.00 0.00 0.00 48 1015.9
20260901212530 70 360 4.0 12.0 0.00 0.00 0.00 49 1015.9
20260901212029 70 22 5.0 14.0 0.00 0.00 0.00 50 1016.0
20260901211553 70 352 6.0 14.0 0.00 0.00 0.00 49 1016.0
20260901211030 70 319 3.0 13.0 0.00 0.00 0.00 52 1016.1
20260901210529 69 317 3.0 13.0 0.00 0.00 0.00 53 1016.2
20260901210058 69 17 1.0 8.0 0.00 0.00 0.00 53 1016.1
20260901205531 68 44 1.0 8.0 0.00 0.00 0.00 56 1016.2
20260901205031 67 130 1.0 10.0 0.00 0.00 0.00 55 1016.2
20260901204544 68 127 2.0 10.0 0.00 0.00 0.00 55 1016.3
20260901204031 68 22 3.0 10.0 0.00 0.00 0.00 54 1016.3
20260901203531 67 68 4.0 13.0 0.00 0.00 0.00 54 1016.3
20260901203102 66 71 5.0 13.0 0.00 0.00 0.00 56 1016.4
20260901202531 66 360 2.0 10.0 0.00 0.00 0.00 58 1016.6
20260901202032 67 57 3.0 12.0 0.00 0.00 0.00 55 1016.5
20260901201547 67 352 4.0 14.0 0.00 0.00 0.00 54 1016.5
20260901201031 67 17 3.0 14.0 0.00 0.00 0.00 54 1016.4
20260901200535 67 317 3.0 11.0 0.00 0.00 0.00 56 1016.3
20260901200047 68 24 4.0 11.0 0.00 0.00 0.00 57 1016.4
20260901195530 66 319 3.0 11.0 0.00 0.00 0.00 57 1016.5
20260901195029 65 5 2.0 11.0 0.00 0.00 0.00 58 1016.6
20260901194549 65 360 5.0 12.0 0.00 0.00 0.00 59 1016.6
20260901194030 64 330 4.0 12.0 0.00 0.00 0.00 59 1016.5
20260901193531 65 22 6.0 11.0 0.00 0.00 0.00 58 1016.6
20260901193106 65 314 2.0 11.0 0.00 0.00 0.00 59 1016.5
20260901192530 65 342 6.0 11.0 0.00 0.00 0.00 59 1016.6
20260901192030 64 324 0.0 10.0 0.00 0.00 0.00 61 1016.6
20260901191549 64 33 4.0 11.0 0.00 0.00 0.00 61 1016.7
20260901191030 64 349 5.0 11.0 0.00 0.00 0.00 61 1016.7
20260901190531 64 5 6.0 11.0 0.00 0.00 0.00 60 1016.7
20260901190051 64 24 5.0 10.0 0.00 0.00 0.00 61 1016.8
20260901185531 64 22 3.0 12.0 0.00 0.00 0.00 62 1016.8
20260901185027 64 331 6.0 12.0 0.00 0.00 0.00 61 1016.9
20260901184547 63 342 3.0 13.0 0.00 0.00 0.00 63 1016.8
20260901184028 63 26 2.0 13.0 0.00 0.00 0.00 63 1016.9
20260901183531 63 325 5.0 13.0 0.00 0.00 0.00 62 1016.9
20260901183058 63 352 3.0 14.0 0.00 0.00 0.00 62 1016.9
20260901182531 63 321 4.0 14.0 0.00 0.00 0.00 61 1016.9
20260901182032 63 339 3.0 14.0 0.00 0.00 0.00 63 1016.8
20260901181551 63 298 4.0 14.0 0.00 0.00 0.00 62 1016.7
20260901181033 63 212 2.0 11.0 0.00 0.00 0.00 64 1016.6
20260901180530 63 322 2.0 11.0 0.00 0.00 0.00 64 1016.6
20260901180050 62 290 2.0 11.0 0.00 0.00 0.00 64 1016.7
20260901175529 62 189 3.0 11.0 0.00 0.00 0.00 67 1016.6
20260901175031 61 343 1.0 11.0 0.00 0.00 0.00 67 1016.6
20260901174544 61 322 5.0 11.0 0.00 0.00 0.00 67 1016.5
20260901174118 60 352 3.0 11.0 0.00 0.00 0.00 69 1016.6
20260901173533 60 10 2.0 11.0 0.00 0.00 0.00 69 1016.8
20260901173053 59 254 4.0 10.0 0.00 0.00 0.00 71 1016.8
20260901172532 58 296 2.0 10.0 0.00 0.00 0.00 73 1016.7
20260901172030 58 350 2.0 10.0 0.00 0.00 0.00 73 1016.6
20260901171557 58 330 4.0 8.0 0.00 0.00 0.00 73 1016.5
20260901171031 58 326 3.0 9.0 0.00 0.00 0.00 73 1016.5
20260901170531 58 9 3.0 9.0 0.00 0.00 0.00 74 1016.5
20260901170101 58 329 3.0 11.0 0.00 0.00 0.00 74 1016.5
20260901165530 57 325 5.0 11.0 0.00 0.00 0.00 74 1016.5
20260901165032 57 29 4.0 10.0 0.00 0.00 0.00 74 1016.5
20260901164548 57 345 4.0 8.0 0.00 0.00 0.00 75 1016.5
20260901164032 57 26 0.0 11.0 0.00 0.00 0.00 75 1016.3
20260901163532 57 0 5.0 11.0 0.00 0.00 0.00 75 1016.3
20260901163053 57 323 2.0 9.0 0.00 0.00 0.00 75 1016.3
20260901162529 57 352 4.0 11.0 0.00 0.00 0.00 75 1016.3
20260901162030 56 345 3.0 11.0 0.00 0.00 0.00 76 1016.2
20260901161552 57 342 1.0 6.0 0.00 0.00 0.00 77 1016.2
20260901161032 56 0 1.0 8.0 0.00 0.00 0.00 78 1016.1
20260901160530 56 360 0.0 8.0 0.00 0.00 0.00 78 1016.0
20260901160056 56 290 1.0 11.0 0.00 0.00 0.00 78 1015.9
20260901155530 55 78 2.0 14.0 0.00 0.00 0.00 79 1015.9
20260901155032 55 284 2.0 14.0 0.00 0.00 0.00 79 1015.9
20260901154550 55 335 6.0 14.0 0.00 0.00 0.00 79 1015.7
20260901154031 55 325 7.0 14.0 0.00 0.00 0.00 79 1015.6
20260901153531 55 292 1.0 12.0 0.00 0.00 0.00 80 1015.5
20260901153046 55 236 2.0 12.0 0.00 0.00 0.00 80 1015.5
20260901152530 55 291 3.0 9.0 0.00 0.00 0.00 81 1015.5
20260901152029 54 234 2.0 13.0 0.00 0.00 0.00 82 1015.5
20260901151543 54 326 4.0 13.0 0.00 0.00 0.00 82 1015.4
20260901151030 54 344 3.0 9.0 0.00 0.00 0.00 84 1015.4
20260901150529 54 292 2.0 15.0 0.00 0.00 0.00 84 1015.4
20260901150049 54 278 3.0 15.0 0.00 0.00 0.00 84 1015.2
20260901145531 54 343 3.0 11.0 0.00 0.00 0.00 84 1015.1
20260901145030 54 344 2.0 11.0 0.00 0.00 0.00 85 1015.0
20260901144548 54 306 3.0 15.0 0.00 0.00 0.00 85 1015.0
20260901144030 54 306 5.0 15.0 0.00 0.00 0.00 85 1014.9
20260901143528 54 9 2.0 13.0 0.00 0.00 0.00 85 1014.9
20260901143049 54 327 4.0 13.0 0.00 0.00 0.00 85 1014.7
20260901142528 54 292 2.0 11.0 0.00 0.00 0.00 85 1014.6
20260901142032 54 340 1.0 11.0 0.00 0.00 0.00 86 1014.5